OKEAN-0
1 25860U 99039A 11153.90415609 .00000243 00000-0 44519-4 0 3233
2 25860 097.8832 120.7428 0001851 055.3717 304.7665 14.73786551638552
NOAA-16
1 26536U 00055A 11152.56532236 .00000366 00000-0 22282-3 0 03172
2 26536 099.1389 182.7886 0011426 078.6647 281.5814 14.12622273551151
NOAA-17
1 27453U 02032A 11152.72100908 .00000257 00000-0 12894-3 0 03080
2 27453 098.3795 193.1402 0011532 189.5569 170.5393 14.24277593464454
NOAA-18
1 28654U 05018A 11152.71759460 .00000138 00000-0 10097-3 0 07886
2 28654 098.9932 103.8270 0014731 145.2248 214.9883 14.11477750310747
NOAA-19
1 33591U 09005A 11152.71138703 -.00000102 00000-0 -32354-4 0 09799
2 33591 098.8250 093.1262 0014759 023.5081 336.6750 14.11169348119204
HUBBLE
1 20580U 90037B 11152.23076218 .00000817 00000-0 49136-4 0 07747
2 20580 028.4692 120.6850 0003093 308.8152 051.2073 15.01371121957250
ISS
1 25544U 98067A 11153.74383836 .00022373 00000-0 14647-3 0 4619
2 25544 051.6505 234.6982 0005699 004.0868 136.4001 15.75694979718635
CO-58
1 28895U 05043F 11152.64627693 .00000237 00000-0 58526-4 0 08897
2 28895 097.9707 029.6353 0016703 270.3036 089.6255 14.60104922297977
FALCON
1 30776U 07006E 11152.98091667 .00002375 00000-0 16859-3 0 01027
2 30776 035.4328 079.4373 0002162 312.7606 047.2935 15.04624687232751
MAST
1 31126U 07012K 11152.75564935 .00000218 00000-0 59494-4 0 01861
2 31126 097.8944 180.8521 0093717 218.0479 141.4071 14.53748645218847
CAPE1
1 31130U 07012P 11152.65857714 .00000238 00000-0 65371-4 0 1891
2 31130 097.8983 177.5508 0101348 229.2339 130.0021 14.52392249218384
COMPASS
1 32787U 08021E 11152.61874226 .00001566 00000-0 20172-3 0 00033
2 32787 097.8476 216.7238 0014690 225.0857 134.9171 14.82417661167255
AAUSAT2
1 32788U 08021F 11153.66424686 .00000913 00000-0 11988-3 0 9928
2 32788 097.8487 217.9682 0014236 221.2835 138.7304 14.82601661167428
DO-64
1 32789U 08021G 11153.74590788 .00002160 00000-0 27147-3 0 94
2 32789 097.8578 219.0258 0014482 218.4115 141.6068 14.83063194167440
CO-66
1 32791U 08021J 11152.42961552 .00001306 00000-0 17049-3 0 09968
2 32791 097.8508 216.4856 0015101 223.2381 136.7647 14.82111219167178
RS-30
1 32953U 08025A 11153.98149507 .00000010 00000-0 00000 0 0 7865
2 32953 082.5005 171.5544 0020353 060.1110 300.1991 12.43013205137323
TACSAT-3
1 35001U 09028A 11152.77703441 .00018467 00000-0 33731-3 0 6062
2 35001 040.4514 266.3207 0021599 091.6404 268.6887 15.48651980114698
PHARMSAT
1 35002U 09028B 11152.67574439 .00015921 00000-0 29477-3 0 05686
2 35002 040.4677 264.6098 0023287 099.4319 260.9127 15.48301208114704
HAWKSAT1
1 35003U 09028C 11153.54287413 .00069290 00000-0 70052-3 0 6377
2 35003 040.4564 232.6889 0019967 129.6728 230.5860 15.64066499115136
CP6
1 35004U 09028D 11153.56278888 .00102255 00000-0 80296-3 0 6411
2 35004 040.4540 224.6342 0018715 131.0252 229.2196 15.70159308115210
METEOR-M
1 35865U 09049A 11153.72522719 .00000176 00000-0 10000-3 0 4235
2 35865 098.7067 209.0399 0003480 070.6732 289.4779 14.21839008 88534
RS-38
1 35869U 09049E 11153.72707712 .00000177 00000-0 10000-3 0 4160
2 35869 098.7037 209.0786 0005678 070.5623 289.6133 14.22012447 88542
